Wind_Speed
85 85 85 86 86 87 87 87 87 87 86 86 86 86 85 85 85 84 83 82 81 81 80 79 78 78 78 78 78 78 77 76 75 75 74 73 73 73 72 72 72 72 72 73 73 74 75 75 76 76 77 77 77 78 78 78 79 80 81 81 82 84 85 86 88 89 90 91 93 94 95 97 98 100 101 103 104 106 107 109 110 111 113 114 115 117
85 85 86 86 86 87 87 87 87 87 86 86 86 85 85 85 85 84 84 83 82 81 80 80 79 78 78 78 78 78 78 77 76 75 75 74 74 73 73 73 72 72 73 73 74 74 75 75 76 76 77 77 77 78 78 79 79 80 81 81 82 84 85 86 87 88 90 91 92 93 95 96 97 99 100 102 104 105 107 108 110 111 113 114 115 116
86 86 86 86 87 87 88 88 88 87 87 86 85 85 85 84 85 84 84 83 83 82 81 80 79 79 79 79 79 79 79 78 77 76 76 75 75 74 74 73 73 73 73 74 74 75 75 76 76 77 77 77 78 78 78 79 79 80 81 82 83 84 85 86 87 88 89 90 91 93 94 95 97 98 100 102 103 105 107 108 110 111 112 114 115 116
86 86 87 87 87 88 88 88 88 88 87 86 85 85 84 84 84 84 84 84 83 82 81 80 80 79 79 79 80 80 79 79 78 77 76 76 75 75 74 74 74 74 74 74 75 75 75 76 76 77 77 78 78 78 79 79 80 80 81 82 83 83 84 85 86 87 88 89 91 92 93 95 96 98 99 101 103 104 106 108 109 111 112 114 115 116
87 87 87 87 88 88 89 89 89 88 88 87 86 85 84 84 84 84 84 84 84 83 82 81 80 80 80 80 80 80 80 79 78 78 77 77 76 76 75 75 75 75 75 75 75 75 76 76 77 77 78 78 78 79 79 79 80 81 81 82 83 83 84 85 86 87 88 89 90 91 93 94 96 97 99 101 102 104 106 107 109 110 112 113 114 115
87 87 87 88 88 89 90 90 90 89 89 88 87 86 85 84 84 84 84 84 84 83 82 81 80 80 80 80 81 80 80 80 79 79 78 78 77 77 76 76 75 75 75 76 76 76 76 77 77 78 78 78 79 79 79 80 80 81 81 82 82 83 84 84 85 86 87 88 90 91 92 94 95 97 98 100 102 103 105 107 108 109 110 111 112 113
88 88 88 88 89 90 90 90 90 90 89 89 88 86 85 85 84 84 84 84 84 83 82 82 81 81 81 81 81 81 80 80 80 79 79 78 78 77 77 76 76 76 76 76 76 76 77 77 78 78 79 79 79 79 80 80 81 81 81 82 82 83 83 84 85 86 87 88 89 91 92 94 95 96 98 100 101 103 104 105 107 108 109 109 110 110
89 89 89 89 90 90 91 91 90 90 90 89 88 87 86 86 85 84 84 84 84 83 82 82 82 81 81 81 81 81 81 80 80 80 79 79 78 78 77 77 77 77 77 76 77 77 77 78 78 79 79 79 80 80 80 81 81 81 82 82 82 83 83 84 85 86 87 88 89 90 92 93 95 96 98 99 100 102 103 104 105 106 106 107 107 108
89 90 90 90 91 91 91 91 91 90 90 89 89 88 88 87 86 85 84 84 83 83 82 82 82 82 82 82 82 81 81 81 81 80 80 79 79 78 78 77 77 77 77 77 77 77 78 79 79 79 80 80 80 81 81 81 81 81 82 82 82 83 83 84 85 86 87 88 89 90 92 93 94 96 97 98 100 101 102 103 103 104 104 104 104 105
90 90 91 91 91 91 92 92 92 91 90 89 89 88 88 87 86 86 85 84 84 83 83 82 82 82 82 82 82 81 81 81 81 80 80 80 79 79 78 78 78 78 77 77 77 78 78 79 80 80 80 80 81 81 81 81 82 82 82 82 82 83 83 84 85 86 87 88 89 90 92 93 94 95 96 98 99 100 101 101 101 101 100 100 101 102
91 91 91 92 92 92 92 92 92 91 90 90 89 88 88 87 86 85 85 85 84 84 83 83 82 82 83 83 82 82 81 81 81 81 80 80 79 79 79 78 78 78 77 77 77 78 79 80 80 80 81 81 81 82 82 82 82 82 82 82 82 83 84 84 85 86 87 88 89 90 91 93 94 95 96 97 98 98 98 98 97 96 96 96 97 97
91 92 92 92 92 92 92 92 92 91 91 91 90 89 88 86 85 85 85 85 85 84 84 83 82 82 83 83 82 82 81 81 81 81 80 80 79 79 79 78 78 78 78 77 78 79 80 80 81 81 81 82 82 82 82 82 82 82 82 82 83 83 84 84 85 86 87 88 89 90 91 92 93 94 95 96 97 96 95 94 92 91 91 91 92 92
91 92 92 92 92 92 92 92 92 92 91 91 90 90 88 86 85 84 84 84 84 84 83 83 83 82 82 83 82 82 81 81 81 80 80 80 79 79 79 78 78 78 78 78 78 79 80 81 81 81 82 82 82 82 82 82 82 82 82 82 82 83 84 84 85 86 87 88 89 90 91 92 93 94 95 95 95 93 91 89 88 87 87 87 87 87
92 92 92 92 92 92 92 92 92 92 92 91 90 89 87 86 85 84 84 84 84 83 83 83 82 83 82 82 82 81 81 81 81 80 80 80 79 79 79 78 78 78 78 78 79 80 81 81 81 82 82 82 83 83 82 82 82 82 82 82 82 83 83 84 85 85 86 88 89 90 91 92 93 94 94 94 92 90 87 85 83 83 83 83 83 83
92 92 92 92 92 92 92 92 92 92 91 91 89 88 86 85 84 83 83 83 83 82 82 82 82 82 82 82 82 81 81 81 80 80 80 80 79 79 78 78 78 78 78 78 79 80 81 81 82 82 82 83 83 83 83 82 82 82 82 82 82 83 83 84 84 85 86 87 88 89 90 91 92 93 93 92 89 86 83 81 79 79 79 79 80 80
92 92 92 92 92 91 91 91 91 91 91 90 89 87 86 85 84 83 82 83 82 82 81 81 81 81 82 82 81 81 81 80 80 79 80 80 80 79 78 78 78 78 78 78 79 81 81 82 82 82 82 83 83 83 83 82 82 82 82 82 82 82 83 84 85 85 86 87 88 88 89 90 91 91 91 89 87 84 81 78 77 76 75 75 76 76
92 92 91 91 91 91 90 90 90 90 90 89 88 87 85 84 83 82 82 82 81 81 80 80 80 81 81 81 81 81 80 79 79 79 79 80 80 79 78 78 77 77 78 78 80 81 82 82 82 82 83 83 83 83 83 83 82 82 82 82 82 82 83 84 85 85 86 87 87 87 87 88 89 89 88 87 84 81 79 77 75 73 72 72 73 73
91 91 91 90 90 90 90 90 89 89 89 88 87 85 84 83 83 82 81 81 80 80 79 79 79 79 80 81 81 80 79 79 78 78 78 79 79 79 78 77 77 77 77 79 80 81 82 82 82 82 83 83 83 83 83 82 82 82 81 81 82 82 83 84 85 85 85 85 85 85 85 86 87 87 86 84 82 80 78 76 74 71 70 69 70 70
90 90 90 89 89 89 89 89 88 88 88 87 85 84 84 83 82 81 80 79 79 78 78 78 78 78 79 80 81 80 79 78 77 77 78 78 79 79 78 77 76 76 77 79 80 81 82 82 82 82 83 83 83 83 83 82 82 81 81 81 81 82 83 84 84 84 84 83 83 83 83 84 84 84 83 81 79 78 76 74 72 70 68 67 67 68
90 89 88 88 88 88 88 88 87 87 86 85 84 83 83 82 82 81 80 78 77 76 76 76 77 77 78 79 80 80 78 77 77 76 77 78 78 78 77 76 76 76 77 79 81 81 82 82 82 82 83 83 83 83 82 82 82 81 81 81 81 82 83 83 83 83 82 81 80 80 80 81 82 81 80 78 77 75 74 72 70 68 67 66 65 65
88 88 87 87 87 87 87 87 86 86 85 83 82 82 82 81 81 80 78 77 76 75 75 75 76 77 77 78 79 79 78 77 76 76 76 76 77 77 77 75 75 75 77 79 81 81 81 82 82 82 83 83 82 82 82 81 81 81 81 81 81 82 82 83 82 81 79 78 77 77 78 79 79 78 77 75 74 73 71 70 68 66 65 64 63 63
87 87 86 86 85 85 86 86 85 84 83 82 81 81 80 80 79 78 77 76 75 74 74 74 75 75 76 77 78 78 77 76 75 75 75 76 76 76 76 75 74 75 77 79 80 81 81 81 82 82 82 82 82 81 81 81 81 81 81 81 81 82 82 82 80 79 77 75 74 75 75 76 76 75 74 73 71 70 69 67 66 64 63 62 61 60
86 86 85 85 84 84 84 84 84 83 82 81 80 79 79 78 78 77 76 75 74 73 73 73 74 74 75 76 77 77 76 75 74 74 74 74 75 75 74 74 74 75 77 78 80 80 80 81 82 82 82 82 81 81 80 80 81 81 81 81 82 82 81 80 78 76 74 72 72 72 73 73 73 72 71 70 69 67 66 64 63 62 61 60 59 58
85 85 84 84 83 83 83 83 82 82 80 80 79 78 77 77 76 75 74 73 73 73 73 73 73 74 74 75 75 76 75 74 74 73 73 73 73 73 73 73 74 75 76 78 79 79 80 81 81 82 81 81 81 80 80 80 80 80 81 81 82 81 80 78 76 73 71 70 70 70 70 70 70 69 68 67 66 65 63 61 60 59 58 57 57 56
83 83 83 82 82 81 81 81 81 80 79 78 78 77 76 75 74 73 72 72 72 72 72 72 72 73 74 74 75 75 74 74 73 72 72 71 71 71 72 72 73 74 76 77 78 78 79 80 81 81 81 80 80 79 79 79 80 80 81 81 81 81 79 76 73 71 69 68 68 68 68 67 67 66 65 64 63 62 60 58 57 57 56 55 55 54
81 82 82 81 81 80 80 80 80 79 78 77 76 75 75 73 72 72 71 71 71 71 71 71 72 72 73 73 74 74 74 73 72 71 70 70 69 70 70 71 72 73 75 76 77 78 78 79 80 80 80 80 79 79 79 79 79 80 81 81 81 79 77 74 71 69 67 66 66 65 65 64 63 62 62 61 60 59 57 56 55 54 53 53 52 52
79 80 80 80 80 79 79 79 78 77 76 76 75 74 73 72 71 70 70 70 70 70 70 70 71 71 72 73 73 73 73 73 72 70 69 68 68 68 70 71 72 73 74 75 76 76 77 78 79 79 79 79 78 78 78 79 79 80 80 80 79 78 75 72 69 67 66 65 64 63 62 61 60 59 59 58 57 56 54 53 52 52 51 51 50 50
77 78 79 79 79 78 77 77 76 76 75 74 73 72 71 70 70 69 69 69 69 69 69 69 70 70 71 72 72 73 72 72 71 69 67 66 67 68 69 70 71 72 73 74 74 75 76 77 78 78 78 78 78 78 78 78 79 79 79 79 78 76 73 70 67 65 64 64 62 61 59 58 56 56 56 55 54 53 52 51 50 49 49 48 48 47
76 76 77 77 77 77 76 75 75 74 73 73 72 71 69 68 68 68 68 68 68 68 69 68 69 69 70 71 71 72 72 72 70 68 66 66 66 67 68 69 70 71 71 72 73 74 75 76 77 77 77 77 77 77 77 78 78 78 78 78 76 74 71 68 66 64 63 62 61 58 56 54 53 53 53 52 51 50 49 49 48 47 46 46 45 45
74 75 75 75 75 75 74 74 73 73 72 71 70 69 68 67 67 67 67 67 67 67 68 68 68 68 69 70 70 71 71 71 69 67 66 65 66 67 67 68 69 70 70 71 72 72 73 74 75 76 76 76 76 76 77 77 77 77 77 76 75 72 69 66 64 63 62 61 59 56 54 51 50 50 50 49 49 48 47 46 45 45 44 43 43 43
73 73 73 73 73 73 73 72 72 71 70 69 69 68 67 66 66 66 66 66 66 67 67 67 67 67 68 68 69 70 70 70 68 66 65 65 65 66 66 67 68 69 69 70 70 71 72 73 74 75 75 75 76 76 76 77 76 76 75 74 72 70 67 65 63 61 60 59 57 54 51 49 48 47 47 47 46 46 45 44 43 42 42 41 41 40
72 72 72 72 71 71 71 71 70 69 69 68 67 67 66 65 65 65 65 65 65 65 66 66 66 67 67 67 68 69 69 69 68 66 65 65 65 65 66 67 68 68 69 69 69 69 70 71 72 73 74 74 75 76 76 76 75 75 74 72 70 68 65 63 61 60 59 57 54 52 49 47 46 45 45 45 44 43 42 42 41 40 39 39 39 38
71 70 70 70 70 70 69 69 68 68 67 67 66 66 65 65 64 64 64 64 64 64 65 65 65 66 66 67 67 68 68 68 67 65 64 64 65 65 65 66 67 68 68 68 68 68 68 69 70 71 72 73 74 75 75 75 74 73 72 70 68 66 63 61 59 58 57 55 52 50 47 45 44 43 43 43 42 41 40 39 39 38 37 37 36 36
69 69 69 68 68 68 67 67 66 66 66 65 65 65 64 64 64 64 64 63 64 63 64 64 64 65 65 66 66 67 67 67 66 65 64 64 64 64 64 65 66 66 67 67 67 67 68 68 68 69 70 71 72 73 74 73 72 71 70 68 66 64 61 59 57 56 54 53 50 48 45 43 42 42 42 41 40 39 38 37 36 36 35 35 34 34
68 68 67 67 66 66 65 65 64 64 64 64 64 64 63 63 63 63 63 63 63 63 63 63 63 63 64 65 65 66 66 66 65 64 63 63 63 63 63 64 64 65 65 66 66 67 67 67 68 68 69 70 71 72 72 71 70 69 67 66 64 61 59 57 55 54 52 50 48 46 44 42 41 41 40 39 39 37 36 36 35 34 33 33 33 33
66 66 66 65 65 64 64 63 63 63 63 63 63 63 62 62 62 62 62 62 62 62 62 62 62 62 63 63 64 65 65 65 65 64 62 62 61 61 62 62 63 63 64 64 65 66 66 67 67 68 68 69 70 70 70 69 68 67 65 63 61 59 57 55 53 51 49 47 46 44 42 40 40 39 39 38 37 36 35 34 33 32 31 31 31 31
65 65 64 64 63 63 62 62 62 62 62 62 61 61 61 61 62 62 62 61 61 61 61 61 61 61 62 62 63 64 64 65 64 63 62 61 60 60 60 61 61 62 62 63 64 64 65 66 66 67 67 68 69 68 68 67 66 65 63 62 60 58 55 53 51 49 47 45 43 42 40 39 38 38 38 37 36 34 33 32 31 30 30 30 30 30
64 63 63 62 61 61 61 61 61 61 60 60 60 60 60 61 61 61 61 60 60 60 60 60 60 60 61 61 62 63 63 64 63 62 61 60 59 59 59 59 60 60 61 62 63 63 64 64 65 66 67 67 67 67 66 65 64 63 61 60 58 56 54 52 50 47 45 43 41 40 38 38 37 37 36 35 34 33 31 30 29 29 28 28 28 28
62 62 61 61 60 60 60 60 60 59 59 59 59 59 60 60 60 60 60 59 59 59 59 58 59 59 60 61 62 62 62 62 62 61 60 59 58 58 57 58 58 59 60 61 61 62 63 63 64 65 65 65 65 65 64 63 62 61 59 57 56 54 53 51 48 45 42 40 39 38 37 36 36 36 35 34 33 31 30 29 28 27 27 27 27 27
61 60 60 59 59 59 59 59 59 58 58 58 58 59 59 59 59 59 58 58 58 58 57 58 58 58 59 60 61 61 61 61 60 59 59 58 57 56 56 57 57 58 59 60 60 61 62 63 63 64 64 63 63 63 62 61 60 58 57 55 54 52 51 50 47 43 40 38 37 36 35 35 35 34 34 33 31 30 29 28 27 26 25 25 25 25
59 59 59 58 58 58 58 58 58 58 57 57 58 58 58 58 58 58 57 57 57 57 57 57 57 58 59 60 60 61 60 60 59 58 57 57 56 55 55 56 56 57 58 59 60 61 61 62 63 63 62 62 61 60 60 59 58 56 54 53 51 50 49 48 45 42 38 36 35 34 34 34 34 33 33 31 30 29 27 26 25 25 24 24 24 24
58 58 58 58 57 57 57 57 57 57 57 57 57 57 57 57 57 57 56 56 56 56 56 56 57 58 58 59 60 59 59 58 58 57 56 55 55 54 54 55 55 56 57 58 59 60 61 62 62 62 61 60 59 58 57 56 55 54 52 50 48 47 47 46 43 40 37 34 33 32 32 32 33 32 31 30 28 27 26 25 24 24 23 23 23 24
57 57 57 57 57 57 56 56 56 56 56 56 56 56 56 56 56 56 55 55 56 56 56 56 56 57 58 58 59 59 58 57 56 56 55 54 54 53 54 54 54 55 56 57 58 59 60 61 61 61 59 58 57 56 55 54 53 51 50 48 46 45 45 43 41 38 35 33 31 31 31 31 32 31 30 29 27 26 25 24 23 23 22 22 22 23
56 56 56 56 56 56 56 56 55 55 55 55 55 55 55 55 55 54 54 55 55 55 55 56 56 56 57 58 58 58 57 56 55 54 54 53 53 53 53 53 53 54 55 56 57 59 60 60 60 59 58 56 55 53 52 51 50 49 48 46 44 43 43 41 39 36 33 31 30 30 30 30 31 30 29 27 26 25 24 23 22 22 22 22 22 23
55 56 56 55 55 55 55 55 54 54 54 54 55 55 54 54 54 54 54 54 54 55 55 55 55 55 56 57 57 57 56 55 54 54 53 52 52 52 52 52 53 53 54 55 57 58 59 60 59 58 56 54 52 51 50 49 47 46 45 44 42 41 40 39 37 34 32 30 29 29 29 29 29 29 27 26 24 23 23 22 22 21 21 21 22 23
55 55 55 55 55 54 54 53 53 53 53 53 54 54 53 53 53 53 53 53 54 54 54 54 54 55 55 56 56 56 55 54 54 53 52 52 51 51 51 51 52 53 54 55 56 57 58 58 58 57 54 52 50 48 47 46 45 44 43 42 41 40 38 37 34 32 30 28 28 28 28 28 28 27 26 24 23 23 22 22 21 21 21 21 22 23
54 55 55 54 54 53 53 52 52 52 52 52 52 53 52 52 52 52 52 53 53 53 53 53 53 54 54 54 54 54 54 53 53 52 52 51 51 50 50 51 51 52 53 54 56 57 57 57 56 55 53 50 48 46 45 44 43 42 41 40 39 38 37 35 32 29 28 27 27 27 27 27 27 26 25 23 23 22 22 21 21 21 21 21 22 23
54 54 54 54 53 53 52 51 51 51 51 51 52 52 52 51 51 51 52 52 52 52 52 52 52 53 53 53 53 52 52 52 52 52 52 51 51 50 50 50 51 52 53 54 55 56 56 56 55 53 50 47 45 43 42 42 41 41 39 38 37 36 35 33 30 27 26 26 26 26 26 26 26 25 23 23 22 22 22 21 21 21 21 22 23 24
53 53 53 53 53 52 51 50 50 50 50 51 51 51 51 51 51 51 51 51 51 51 51 51 51 52 52 52 51 51 51 51 51 51 51 51 50 50 50 50 51 52 52 53 54 55 55 55 54 51 48 44 41 39 38 39 40 39 38 36 35 34 33 31 28 26 24 24 24 25 25 25 24 24 23 22 22 22 21 21 21 22 22 23 24 25
52 53 52 52 52 51 50 50 49 49 50 50 50 50 50 50 50 50 50 50 50 50 50 50 50 51 50 50 50 50 50 50 50 50 50 50 50 50 50 50 51 52 52 53 53 54 54 54 53 49 45 40 37 35 35 36 37 37 37 35 33 32 31 29 27 24 23 23 24 24 24 24 23 23 22 21 22 22 22 22 22 22 23 24 25 26
51 51 51 51 50 50 49 49 49 49 49 49 49 49 49 49 49 49 49 49 49 49 49 49 49 49 49 49 49 49 49 49 49 50 50 50 49 50 50 50 51 52 52 53 53 53 54 54 52 49 43 38 33 31 31 32 34 35 35 34 32 31 30 28 25 23 22 22 23 23 23 23 22 22 21 21 22 22 22 22 23 23 24 25 26 28
Wind_Direction
282 282 283 283 284 285 285 286 286 287 287 288 288 289 289 289 290 290 290 290 290 290 289 289 289 289 288 288 288 287 287 287 286 285 285 284 283 283 282 282 281 281 280 279 278 277 277 276 275 274 274 273 273 272 272 271 271 270 270 269 269 268 267 267 266 266 265 265 264 264 263 263 263 262 262 261 261 261 260 260 259 259 259 258 258 257
282 283 283 284 284 285 285 285 286 286 287 287 288 288 289 289 289 289 290 290 289 289 289 289 289 288 288 288 288 287 287 287 286 286 285 284 284 283 283 282 282 281 281 280 279 278 278 277 276 276 275 275 274 274 273 273 272 272 271 270 270 269 269 268 268 267 267 266 266 265 265 264 264 263 263 262 262 261 261 261 260 260 259 259 258 258
282 283 283 284 284 285 285 286 286 286 286 287 287 288 288 289 289 289 289 289 289 289 289 289 288 288 288 288 287 287 287 287 286 286 285 285 284 284 283 283 283 282 282 281 280 280 279 278 278 277 276 276 275 275 274 274 273 273 272 272 271 271 270 269 269 268 268 267 267 266 266 265 265 264 264 263 263 262 262 261 261 260 260 260 259 259
283 283 283 284 284 285 285 285 286 286 286 287 287 288 288 288 289 289 289 289 289 289 288 288 288 288 288 287 287 287 287 287 286 286 286 285 285 285 284 284 283 283 282 282 281 281 280 279 279 278 277 277 276 276 276 275 275 274 273 273 272 272 271 271 270 270 269 269 268 268 267 267 266 265 265 264 264 263 263 262 262 261 261 260 260 259
282 283 283 284 284 285 285 285 286 286 286 287 287 288 288 288 288 288 288 288 288 288 288 288 288 288 288 287 287 286 287 287 286 286 286 286 285 285 285 285 284 284 283 283 282 282 281 280 280 279 279 278 278 277 277 276 276 275 275 274 274 273 273 272 272 271 271 270 270 269 268 268 267 267 266 266 265 264 264 263 263 262 262 261 261 260
282 283 283 284 284 284 285 285 286 286 287 287 287 288 288 288 288 288 288 288 288 288 288 288 288 288 287 287 286 286 286 286 287 286 286 286 286 286 285 285 285 284 284 284 283 283 282 281 281 280 280 279 279 278 278 277 277 277 276 276 275 275 274 274 273 273 272 272 271 270 270 269 268 268 267 267 266 266 265 265 264 263 263 262 262 262
282 283 283 283 284 284 285 285 285 286 287 287 288 288 288 288 288 288 288 288 288 288 288 288 288 287 287 286 286 286 286 286 287 286 286 286 286 286 286 285 285 285 285 284 284 284 283 282 282 281 281 280 280 280 279 279 278 278 278 277 277 276 276 275 275 274 274 273 272 272 271 271 270 269 269 268 267 267 266 266 265 265 264 264 263 263
282 282 283 283 283 284 284 285 285 286 286 287 288 288 288 288 288 288 288 288 288 288 288 288 287 287 286 286 286 286 286 286 286 286 286 286 286 286 286 286 286 285 285 285 285 284 284 283 283 282 282 282 281 281 280 280 280 279 279 279 278 278 278 277 276 276 275 275 274 273 273 272 271 271 270 269 269 268 267 267 266 266 266 265 265 264
281 282 282 283 283 284 284 285 285 286 286 287 287 288 288 288 288 288 288 288 288 288 287 287 287 287 286 286 286 286 286 286 286 286 286 287 286 287 286 286 286 286 286 286 286 285 285 284 284 283 283 282 282 282 281 281 281 281 280 280 280 280 279 279 278 277 277 276 276 275 274 273 273 272 271 271 270 270 269 268 268 267 267 266 265 265
281 281 282 282 283 283 284 284 285 286 286 287 287 287 288 288 288 288 288 288 288 287 287 287 287 287 286 286 285 285 286 286 286 286 286 287 287 287 287 287 287 287 287 287 286 286 285 285 284 284 284 283 283 283 283 282 282 282 282 282 281 281 281 280 280 279 278 278 277 276 276 275 274 274 273 272 272 271 270 270 269 268 267 267 266 265
281 281 281 282 283 283 284 284 285 286 286 286 287 287 287 287 287 288 288 288 288 287 287 287 286 286 286 286 285 285 285 286 286 286 286 287 287 287 287 287 287 287 287 287 287 287 286 286 285 285 285 284 284 284 284 283 283 283 283 283 283 283 282 282 281 280 280 279 278 278 277 277 276 276 275 274 274 273 272 271 270 269 268 267 265 264
280 281 281 282 282 283 284 284 285 285 286 286 286 286 287 287 287 288 288 288 287 287 287 286 286 286 285 285 285 285 285 286 286 286 286 287 287 287 287 288 288 288 288 288 288 287 287 286 286 286 285 285 285 285 285 285 284 284 284 284 284 284 283 283 282 282 281 281 280 280 279 279 278 278 278 277 276 275 273 272 271 270 269 267 265 264
280 280 281 282 282 283 283 284 285 285 285 286 286 286 286 287 287 287 287 287 287 286 286 286 286 285 285 285 285 285 285 286 286 286 286 287 287 287 288 288 288 289 289 289 288 288 287 287 287 286 286 286 286 286 286 286 286 286 286 285 285 285 284 284 283 283 283 282 282 282 281 281 281 281 280 278 277 276 275 273 272 271 269 268 266 264
280 280 281 281 282 283 283 284 284 285 285 285 285 286 286 287 287 287 287 286 286 286 286 286 285 285 284 284 284 285 285 285 286 286 287 287 287 288 288 288 289 289 289 289 289 288 288 288 287 287 287 287 287 287 287 287 287 287 287 287 286 286 286 285 285 284 284 284 284 284 284 284 283 282 281 280 278 277 275 274 273 271 270 268 267 265
280 280 281 281 282 283 283 283 284 284 284 285 285 285 286 286 286 286 286 286 286 286 285 285 285 284 284 284 284 284 285 285 286 286 287 287 288 288 288 289 289 289 290 290 289 289 288 288 288 288 288 288 288 288 288 288 288 288 288 288 287 287 287 286 286 286 286 286 286 286 286 285 285 284 282 281 279 278 277 275 273 272 270 269 267 266
280 280 281 281 282 283 283 283 283 284 284 284 285 285 286 286 286 286 286 286 285 285 285 285 285 284 284 284 284 284 284 285 285 286 287 287 288 288 289 289 290 290 290 290 290 289 289 289 289 289 289 289 289 289 289 289 289 289 289 289 289 288 288 288 288 287 287 287 287 287 287 287 286 284 283 281 280 279 278 276 274 272 271 269 267 266
280 280 281 281 282 282 283 283 283 283 284 284 284 285 285 286 286 286 285 285 285 285 285 284 284 284 284 284 283 284 284 285 285 286 287 287 288 288 289 290 290 291 291 291 290 290 289 289 290 290 290 290 290 290 290 290 290 290 290 290 290 289 289 289 289 289 289 289 289 289 288 287 286 284 283 282 281 280 279 278 276 273 271 269 268 266
279 280 281 281 282 282 282 282 282 283 283 283 284 285 285 285 285 285 285 285 284 284 284 284 284 283 283 283 283 283 284 285 285 286 287 287 288 289 289 290 290 291 291 291 290 290 290 290 290 290 290 290 290 291 291 291 291 291 291 291 290 290 290 290 290 290 290 290 290 289 289 287 285 283 282 282 281 281 280 278 277 275 272 270 268 266
279 280 280 281 281 281 282 282 282 282 283 283 284 284 285 285 285 285 284 284 284 284 284 283 283 283 282 282 283 283 284 285 285 286 287 288 288 289 290 290 291 291 291 291 291 290 290 291 291 291 291 291 291 291 291 292 292 292 292 292 291 291 291 291 291 291 291 291 291 290 288 286 284 283 282 282 281 281 280 279 277 275 273 271 268 266
279 280 280 280 281 281 281 281 282 282 283 283 284 284 284 284 284 284 284 284 284 284 283 283 282 282 282 282 282 283 284 285 286 286 287 288 288 289 290 291 291 292 292 291 291 291 291 291 291 291 291 291 292 292 292 292 292 292 292 292 292 292 292 292 292 292 292 292 291 290 288 285 284 283 282 282 281 281 280 278 277 275 273 271 268 266
279 280 280 280 280 281 281 281 282 282 282 283 284 284 284 284 284 284 284 284 284 283 283 282 281 281 281 281 282 283 284 285 286 286 287 288 289 289 290 291 292 292 292 291 291 291 291 292 292 292 292 292 292 292 293 293 293 293 293 293 293 293 293 293 293 293 293 292 291 289 287 285 283 283 282 282 281 280 279 278 277 275 273 271 268 266
279 279 280 280 280 280 280 281 281 282 283 283 283 284 284 284 284 284 284 284 283 283 282 282 281 281 281 281 282 283 284 285 285 286 287 288 289 289 290 291 292 292 292 291 291 291 292 292 292 292 292 292 293 293 294 294 294 294 294 294 294 294 294 294 294 294 294 293 291 289 287 285 284 283 282 282 281 280 278 277 276 274 272 270 268 265
279 279 279 279 280 280 281 281 282 282 283 283 283 283 283 283 284 284 284 284 283 283 282 281 281 281 281 281 282 283 284 285 285 286 287 288 289 289 290 291 292 292 291 291 291 292 292 292 292 292 293 293 293 294 294 295 295 295 295 295 295 295 295 295 295 295 294 293 291 289 286 285 284 283 282 281 280 279 278 276 275 273 272 269 267 265
279 279 279 279 280 280 281 281 282 282 283 283 283 283 283 283 283 283 283 283 283 282 282 281 281 281 281 282 282 283 284 285 286 286 287 288 289 290 291 291 292 291 291 291 291 292 292 292 292 293 293 294 294 295 295 295 296 296 296 296 296 296 296 296 296 295 295 293 291 288 286 285 284 283 282 281 280 278 277 276 274 273 271 269 267 264
279 279 279 280 280 281 281 281 282 282 283 283 283 283 283 283 283 283 283 283 282 282 282 281 281 281 282 282 283 283 284 285 286 286 287 288 289 290 290 291 291 291 291 291 292 292 292 292 293 293 294 294 295 295 296 296 297 297 297 297 297 297 297 297 296 296 295 293 290 288 286 285 284 283 282 280 279 278 277 275 273 272 270 268 265 263
278 279 280 280 280 281 281 281 282 282 282 282 283 283 283 283 283 283 283 282 282 282 282 281 281 282 282 283 283 284 284 285 286 286 287 288 289 290 290 291 291 291 291 291 292 292 292 293 293 294 294 295 296 296 297 297 297 297 298 298 298 298 297 297 297 297 295 293 290 288 286 285 284 282 281 280 279 278 276 275 273 271 269 266 264 262
278 279 280 280 280 280 281 281 281 282 282 282 282 282 283 283 283 283 282 282 282 282 282 282 282 282 282 283 283 284 285 286 286 287 288 289 290 290 290 290 290 291 291 291 292 292 293 293 294 294 295 296 296 297 297 297 298 298 298 299 299 298 298 298 298 297 295 292 290 288 286 285 283 282 281 280 278 277 276 274 272 270 268 265 263 261
278 279 279 280 280 280 280 281 281 281 282 282 282 282 282 282 282 282 282 282 281 281 281 282 282 282 283 283 284 284 285 286 286 287 288 289 290 290 290 290 290 291 291 291 292 292 293 294 294 295 295 296 297 297 297 298 298 299 299 299 299 299 299 299 298 297 295 292 290 288 286 285 283 282 280 279 278 277 275 273 271 269 267 264 262 260
278 279 279 279 280 280 280 281 281 281 281 282 282 282 282 282 282 282 281 281 281 281 281 282 282 282 283 283 284 285 285 286 286 287 289 289 290 290 290 290 290 291 291 292 292 293 294 294 294 295 296 296 297 297 298 298 299 299 300 300 300 300 299 299 298 297 294 292 290 288 286 285 283 282 280 279 278 276 274 272 270 268 266 264 261 259
279 279 279 279 280 280 280 281 281 281 281 281 281 281 282 281 281 281 281 281 281 281 281 282 282 282 283 283 284 285 285 286 287 288 289 290 290 290 290 290 290 291 291 292 293 293 294 294 295 295 296 296 297 298 298 299 299 300 300 300 300 300 300 299 298 296 294 292 290 288 287 285 284 282 281 279 277 275 273 271 269 267 265 263 260 258
279 279 279 279 279 280 280 280 281 281 281 281 281 281 281 281 281 281 280 281 281 281 281 282 282 283 283 284 284 285 285 286 287 288 289 290 290 290 290 291 291 291 292 292 293 293 294 295 295 296 296 297 297 298 299 299 300 301 301 301 300 300 300 299 298 296 294 292 290 289 288 286 285 283 281 279 277 274 273 270 268 266 264 261 259 257
279 279 279 279 279 280 280 280 281 281 281 281 281 281 281 281 281 281 280 281 281 281 282 282 283 283 284 284 285 285 286 287 288 289 289 290 290 290 291 291 292 292 292 292 293 293 294 294 295 295 296 297 298 298 299 300 300 301 301 301 301 300 300 299 298 296 294 292 290 289 288 287 285 283 281 278 276 274 272 270 267 265 262 260 258 255
279 279 279 279 279 279 280 280 280 281 281 281 281 281 281 281 281 281 281 281 281 282 282 283 283 284 284 284 285 285 286 287 288 289 289 290 290 291 291 291 292 292 292 293 293 293 293 293 294 295 296 297 298 299 299 300 301 301 301 301 301 300 300 299 297 295 294 292 291 290 289 288 286 283 281 278 275 273 271 268 266 264 261 259 257 254
278 278 278 279 279 279 279 280 280 280 280 280 281 281 281 281 281 281 281 281 281 282 282 283 283 284 284 285 285 286 286 287 288 288 289 290 290 290 291 291 291 292 292 292 293 293 293 293 294 294 295 296 297 298 299 300 301 301 301 301 301 300 299 298 296 295 293 292 291 290 289 288 286 283 280 277 275 272 270 267 265 263 260 258 255 252
278 278 278 278 278 279 279 279 279 280 280 280 280 280 280 281 281 281 281 281 282 282 282 283 283 283 284 285 285 286 286 287 287 288 289 289 290 290 291 291 291 291 292 292 293 293 293 293 294 295 295 296 297 299 300 301 301 301 301 301 300 300 299 297 295 294 293 292 291 290 289 288 285 282 279 276 274 271 269 266 264 261 259 256 253 250
278 278 278 278 278 279 279 279 279 279 279 279 279 280 280 280 280 281 281 281 282 282 282 283 283 283 284 285 285 286 286 286 287 288 289 289 290 290 290 291 291 291 292 292 292 293 293 294 294 295 296 297 298 299 300 301 301 301 301 300 300 299 298 296 295 293 292 291 290 290 289 287 285 282 279 276 273 270 268 265 262 260 257 254 250 247
278 278 278 278 278 278 278 279 279 278 278 279 279 279 280 280 280 280 281 281 281 282 282 283 283 284 284 284 285 285 285 286 287 288 289 289 290 290 290 291 291 291 291 292 292 292 293 294 295 296 297 298 299 300 301 301 302 302 301 301 300 299 297 296 294 292 292 291 290 289 288 286 283 280 277 274 272 269 266 264 261 258 255 251 247 244
277 278 278 278 278 278 278 278 278 278 278 279 279 279 280 280 280 280 281 281 282 282 282 283 283 284 284 284 284 285 285 286 287 288 289 289 290 290 290 291 291 291 291 292 292 292 293 294 295 296 298 299 300 301 301 302 302 302 301 300 300 298 297 295 293 292 291 290 289 288 287 284 282 279 276 273 270 268 265 262 259 255 252 248 244 241
278 278 278 278 278 278 278 278 278 278 278 279 279 279 279 280 280 280 281 281 282 282 283 283 284 284 284 284 284 284 285 286 287 288 289 289 289 290 290 290 291 291 291 292 292 293 293 294 296 297 298 299 300 301 302 302 302 301 300 299 299 297 296 294 292 291 290 290 288 287 285 283 280 277 274 271 269 266 263 260 256 253 249 245 241 237
278 278 278 278 278 278 278 278 278 279 279 279 279 279 279 280 280 281 281 282 282 283 283 283 284 284 284 284 284 284 285 286 287 288 288 289 289 290 290 291 291 291 291 292 292 293 294 295 296 297 298 300 301 302 302 302 301 300 299 298 297 296 295 293 291 290 290 289 288 286 283 281 278 275 272 270 267 264 261 258 254 250 245 241 237 233
278 278 278 278 278 278 278 278 278 279 279 279 279 279 279 280 280 281 282 282 283 283 283 283 284 284 284 284 284 284 285 286 287 288 288 289 290 290 290 291 291 291 292 292 293 294 295 296 297 298 299 300 301 302 302 302 301 299 298 297 296 295 293 292 291 290 289 288 286 284 281 279 276 273 270 267 265 262 259 255 251 246 241 237 233 229
278 278 278 278 278 278 278 278 279 279 279 279 279 279 280 280 281 282 282 283 283 283 283 283 283 283 284 284 284 285 285 286 287 288 289 289 290 290 291 291 291 292 292 293 294 295 296 297 298 299 300 301 302 303 302 301 300 298 297 296 295 293 292 290 290 289 288 287 285 282 280 276 273 270 268 265 262 260 256 252 247 242 237 232 228 225
277 277 277 277 278 278 278 279 279 279 279 279 279 280 280 281 281 282 282 283 283 283 283 283 283 283 284 284 284 285 286 287 287 288 289 289 290 290 291 291 292 292 293 294 294 295 296 297 298 299 300 301 302 302 302 301 299 297 295 295 293 292 290 289 288 288 287 285 283 280 277 274 271 268 266 263 260 257 253 248 243 237 232 227 224 220
277 277 277 277 278 278 278 279 279 279 280 280 280 280 281 281 282 282 282 283 283 283 283 283 283 284 284 284 285 286 287 287 288 288 289 289 290 290 291 292 292 293 293 294 295 296 297 298 299 300 301 302 302 302 301 299 297 296 294 294 292 291 289 288 287 286 286 284 281 278 274 271 268 266 263 260 257 254 249 244 238 232 227 222 219 216
277 277 277 278 278 278 279 279 279 280 280 280 280 281 281 281 282 282 282 282 282 282 282 283 284 284 284 285 285 286 287 288 288 289 289 289 290 291 291 292 292 293 294 295 296 297 298 299 300 300 301 302 302 302 301 299 296 295 294 293 291 289 287 286 286 285 284 282 279 275 272 269 266 263 260 258 254 250 245 239 232 227 221 217 214 211
277 278 278 278 278 278 279 279 280 280 280 280 280 281 281 281 282 282 282 282 282 282 283 283 284 284 285 285 286 287 287 288 289 289 289 290 290 291 291 292 293 294 295 296 297 298 299 300 300 301 301 302 302 301 300 298 296 294 292 291 290 288 286 285 284 284 282 280 276 272 269 266 263 260 258 254 250 246 240 233 227 221 215 211 208 206
277 278 278 278 279 279 279 280 280 280 280 280 280 281 281 281 281 281 282 282 282 282 283 284 284 284 285 285 286 287 288 289 289 289 290 290 291 291 292 293 293 295 296 297 298 299 300 300 300 300 301 302 302 301 300 297 295 293 292 290 289 287 285 284 283 282 280 277 273 269 266 263 260 257 254 251 246 240 234 227 220 214 209 206 203 202
278 278 278 279 279 280 280 280 280 280 280 280 280 280 280 281 281 281 281 282 282 283 283 284 284 284 285 285 286 287 288 289 289 290 290 291 291 292 293 294 294 296 297 298 299 300 300 300 300 300 300 301 301 301 299 297 295 293 291 289 288 286 284 283 282 280 278 274 270 266 263 260 257 254 250 246 241 235 228 221 214 208 204 200 198 198
278 278 278 279 280 280 280 280 281 280 280 280 280 280 281 281 281 281 281 282 282 283 283 283 284 284 285 285 286 287 288 289 289 290 290 291 292 293 294 295 296 297 298 299 300 300 300 300 300 299 300 300 300 300 299 297 295 292 290 288 286 284 283 281 280 278 276 271 267 263 259 256 253 249 245 240 235 229 222 214 208 202 198 195 194 193
277 278 278 279 280 280 281 281 281 281 280 280 280 281 281 281 281 281 282 282 282 283 283 283 284 284 285 286 287 287 288 289 289 290 290 291 292 293 294 295 297 298 299 300 301 301 301 300 299 299 299 299 299 299 298 296 294 291 289 287 285 283 281 280 278 276 273 268 263 259 255 252 248 245 240 235 229 222 215 208 202 197 194 191 189 189
277 277 278 279 279 280 280 280 280 280 280 280 280 281 281 281 281 281 281 282 282 282 283 283 284 285 285 286 287 288 288 288 289 289 290 291 293 294 295 296 298 299 300 301 301 302 302 301 300 299 298 298 297 297 297 295 293 290 288 286 284 282 280 278 276 273 269 265 260 256 251 248 244 239 234 229 223 216 208 201 196 192 189 186 185 185
Height
10348 10346 10343 10341 10339 10337 10334 10332 10331 10329 10326 10324 10323 10322 10321 10319 10318 10316 10315 10314 10312 10311 10309 10307 10305 10303 10301 10299 10297 10295 10293 10292 10291 10290 10289 10287 10286 10285 10284 10282 10282 10281 10279 10278 10276 10275 10274 10273 10272 10271 10270 10269 10269 10267 10267 10266 10265 10264 10263 10262 10261 10259 10258 10257 10256 10254 10253 10252 10251 10251 10249 10248 10247 10246 10245 10244 10242 10241 10241 10241 10240 10239 10239 10238 10238 10238
10340 10338 10336 10334 10332 10330 10327 10324 10324 10322 10320 10318 10316 10315 10314 10312 10311 10309 10307 10306 10305 10303 10302 10300 10298 10296 10294 10291 10289 10287 10286 10284 10284 10282 10281 10280 10279 10277 10276 10275 10274 10272 10271 10270 10268 10267 10266 10265 10264 10263 10262 10261 10260 10259 10258 10257 10256 10255 10254 10252 10251 10249 10248 10247 10246 10244 10243 10242 10241 10240 10239 10237 10236 10235 10234 10232 10231 10230 10229 10228 10227 10227 10226 10226 10226 10225
10332 10330 10327 10326 10324 10322 10320 10317 10316 10314 10314 10311 10310 10308 10307 10306 10304 10302 10300 10299 10297 10296 10294 10293 10291 10289 10287 10284 10282 10281 10279 10277 10276 10275 10274 10272 10271 10269 10269 10267 10266 10265 10263 10262 10260 10259 10257 10256 10256 10254 10254 10252 10251 10251 10249 10248 10247 10246 10244 10243 10241 10240 10239 10237 10236 10235 10233 10232 10231 10229 10227 10226 10225 10224 10222 10221 10219 10218 10217 10216 10215 10214 10214 10213 10212 10212
10325 10322 10319 10317 10316 10314 10312 10310 10307 10306 10306 10304 10303 10301 10300 10299 10297 10294 10293 10291 10290 10288 10287 10286 10284 10282 10280 10277 10275 10273 10271 10270 10269 10267 10266 10264 10263 10262 10261 10259 10258 10257 10255 10254 10252 10251 10249 10248 10247 10246 10245 10244 10242 10242 10241 10239 10238 10236 10235 10233 10232 10231 10229 10228 10226 10225 10223 10222 10220 10218 10217 10215 10214 10212 10211 10209 10208 10206 10205 10204 10203 10202 10201 10200 10199 10199
10317 10315 10312 10311 10309 10306 10304 10302 10301 10299 10297 10296 10296 10294 10293 10291 10290 10287 10286 10284 10282 10281 10279 10279 10277 10275 10272 10270 10267 10266 10264 10263 10262 10260 10259 10257 10256 10254 10253 10252 10251 10249 10247 10246 10244 10242 10241 10240 10239 10237 10236 10235 10234 10232 10231 10230 10228 10227 10226 10224 10222 10221 10219 10218 10216 10215 10213 10211 10209 10207 10206 10204 10202 10201 10199 10198 10196 10195 10193 10192 10191 10189 10188 10187 10186 10186
10309 10307 10306 10304 10301 10299 10296 10294 10292 10291 10289 10288 10287 10286 10286 10284 10282 10281 10278 10276 10275 10274 10272 10271 10270 10267 10265 10262 10260 10258 10257 10256 10254 10252 10251 10249 10248 10247 10246 10244 10242 10241 10239 10237 10236 10234 10232 10231 10230 10229 10227 10226 10225 10224 10222 10221 10219 10217 10216 10214 10213 10211 10210 10208 10206 10204 10202 10201 10199 10197 10195 10193 10192 10190 10188 10186 10184 10182 10181 10179 10177 10176 10175 10174 10173 10173
10301 10300 10299 10296 10294 10291 10289 10287 10285 10283 10282 10281 10279 10278 10277 10276 10274 10273 10271 10269 10267 10266 10265 10264 10262 10260 10257 10255 10252 10251 10249 10248 10246 10245 10243 10242 10240 10239 10237 10236 10234 10232 10231 10229 10227 10226 10224 10222 10221 10220 10219 10217 10216 10214 10212 10211 10209 10207 10206 10205 10203 10202 10200 10198 10196 10194 10192 10190 10188 10186 10184 10182 10180 10178 10177 10174 10172 10171 10169 10167 10165 10164 10162 10162 10161 10160
10294 10292 10291 10289 10286 10284 10282 10279 10277 10276 10274 10273 10272 10270 10269 10267 10266 10265 10263 10262 10261 10259 10257 10256 10254 10252 10249 10247 10246 10244 10242 10241 10239 10237 10236 10234 10232 10231 10230 10228 10226 10224 10222 10221 10219 10217 10216 10214 10212 10211 10209 10208 10206 10204 10203 10201 10200 10198 10197 10195 10194 10192 10190 10187 10186 10184 10181 10179 10177 10175 10173 10171 10169 10167 10165 10162 10161 10159 10156 10154 10153 10151 10150 10149 10148 10147
10287 10284 10282 10281 10279 10277 10274 10271 10269 10268 10267 10266 10265 10263 10261 10259 10257 10256 10256 10254 10253 10252 10251 10249 10246 10244 10241 10239 10238 10236 10235 10233 10231 10229 10227 10226 10224 10223 10222 10220 10218 10216 10214 10212 10211 10209 10207 10205 10204 10202 10201 10199 10197 10195 10193 10192 10190 10189 10187 10186 10184 10182 10179 10177 10175 10173 10171 10168 10166 10164 10162 10159 10157 10155 10152 10151 10148 10146 10144 10142 10140 10139 10137 10137 10136 10134
10279 10277 10275 10272 10271 10269 10267 10264 10261 10260 10260 10259 10257 10256 10254 10252 10250 10249 10248 10246 10245 10244 10243 10241 10239 10236 10234 10232 10230 10229 10227 10226 10224 10222 10221 10219 10217 10216 10214 10212 10210 10208 10206 10204 10202 10200 10198 10196 10194 10193 10191 10189 10187 10186 10184 10182 10181 10179 10177 10176 10174 10171 10169 10167 10164 10162 10160 10157 10155 10152 10150 10147 10145 10143 10141 10138 10136 10133 10131 10129 10127 10126 10125 10124 10122 10121
10271 10269 10267 10265 10262 10261 10260 10257 10254 10252 10252 10251 10249 10248 10247 10246 10244 10242 10241 10239 10237 10236 10235 10234 10232 10230 10226 10224 10222 10221 10221 10219 10217 10215 10213 10211 10210 10208 10206 10204 10202 10200 10198 10196 10194 10191 10189 10187 10186 10184 10182 10180 10177 10176 10174 10172 10171 10170 10168 10166 10164 10161 10159 10157 10154 10152 10149 10147 10144 10141 10139 10136 10133 10131 10128 10126 10122 10120 10117 10116 10114 10113 10112 10111 10109 10107
10263 10261 10259 10257 10256 10253 10251 10249 10247 10246 10244 10244 10242 10240 10238 10237 10238 10237 10235 10232 10229 10228 10227 10226 10224 10222 10219 10216 10214 10213 10213 10212 10210 10207 10206 10204 10202 10201 10199 10197 10194 10192 10190 10187 10185 10182 10181 10178 10176 10175 10172 10171 10168 10166 10165 10163 10162 10160 10158 10156 10154 10152 10149 10147 10144 10142 10139 10136 10133 10130 10127 10124 10121 10118 10115 10112 10109 10106 10104 10102 10101 10100 10099 10097 10096 10094
10256 10254 10252 10250 10248 10246 10244 10241 10239 10237 10237 10236 10234 10232 10231 10230 10230 10230 10228 10226 10223 10221 10219 10218 10216 10214 10212 10209 10207 10206 10206 10204 10202 10201 10199 10196 10194 10192 10191 10189 10187 10184 10182 10179 10177 10174 10172 10170 10168 10166 10164 10161 10159 10157 10156 10154 10152 10151 10149 10147 10144 10142 10139 10136 10134 10131 10128 10125 10122 10119 10116 10112 10109 10106 10102 10099 10096 10093 10091 10090 10089 10087 10086 10085 10084 10082
10247 10246 10244 10242 10241 10238 10236 10234 10232 10231 10229 10227 10227 10226 10224 10224 10223 10222 10221 10218 10216 10214 10213 10211 10209 10206 10204 10202 10201 10199 10199 10197 10196 10194 10191 10189 10186 10185 10184 10182 10179 10177 10174 10172 10169 10166 10163 10161 10159 10157 10154 10152 10149 10147 10146 10144 10143 10141 10139 10137 10134 10132 10129 10126 10124 10121 10117 10114 10111 10108 10104 10101 10097 10092 10089 10085 10082 10080 10079 10078 10077 10076 10074 10073 10072 10071
10239 10239 10237 10235 10232 10230 10228 10227 10225 10223 10221 10220 10219 10218 10217 10217 10216 10215 10214 10211 10209 10207 10206 10204 10201 10199 10196 10194 10192 10192 10191 10190 10189 10187 10184 10181 10179 10177 10176 10174 10172 10169 10167 10164 10161 10157 10155 10153 10151 10148 10146 10142 10140 10138 10136 10135 10133 10132 10129 10127 10124 10122 10119 10116 10114 10111 10107 10104 10101 10097 10094 10089 10085 10081 10076 10072 10070 10069 10067 10067 10066 10065 10064 10062 10061 10061
10232 10231 10229 10227 10224 10222 10221 10219 10217 10216 10214 10212 10212 10211 10211 10209 10208 10207 10206 10204 10202 10201 10199 10197 10194 10192 10188 10186 10185 10185 10184 10184 10182 10180 10177 10174 10171 10169 10169 10167 10165 10162 10159 10156 10152 10149 10147 10145 10142 10140 10137 10134 10131 10129 10127 10126 10124 10122 10120 10117 10115 10112 10109 10107 10104 10101 10097 10094 10091 10087 10083 10079 10074 10069 10064 10061 10059 10057 10056 10056 10054 10054 10053 10052 10051 10050
10224 10223 10221 10219 10217 10215 10212 10211 10210 10209 10207 10205 10204 10204 10204 10202 10201 10200 10199 10197 10195 10194 10192 10191 10188 10185 10181 10178 10177 10177 10178 10177 10176 10174 10171 10167 10163 10161 10162 10161 10158 10155 10152 10149 10145 10141 10139 10137 10134 10131 10129 10126 10123 10121 10119 10117 10115 10113 10111 10109 10106 10103 10100 10097 10094 10091 10088 10085 10081 10077 10073 10068 10063 10058 10054 10051 10049 10047 10046 10045 10044 10043 10043 10042 10042 10041
10216 10215 10213 10212 10209 10207 10206 10204 10202 10201 10199 10198 10197 10196 10196 10195 10194 10192 10191 10190 10188 10187 10185 10184 10182 10179 10176 10171 10168 10167 10171 10171 10169 10167 10165 10161 10157 10154 10154 10153 10152 10149 10146 10141 10137 10134 10131 10129 10126 10123 10120 10117 10114 10112 10110 10108 10106 10104 10102 10099 10097 10094 10091 10088 10085 10082 10079 10076 10072 10068 10063 10058 10053 10049 10045 10042 10041 10039 10037 10036 10034 10034 10034 10033 10032 10032
10208 10207 10206 10204 10202 10200 10198 10196 10195 10194 10192 10191 10190 10190 10189 10187 10186 10185 10184 10182 10182 10181 10179 10177 10174 10172 10169 10165 10161 10160 10162 10163 10162 10161 10158 10154 10151 10147 10146 10146 10144 10142 10139 10134 10129 10126 10124 10122 10119 10116 10112 10109 10107 10104 10102 10100 10097 10096 10093 10091 10088 10086 10082 10079 10076 10073 10070 10067 10063 10059 10054 10048 10043 10039 10036 10034 10032 10031 10029 10027 10026 10025 10025 10024 10024 10024
10200 10199 10197 10196 10194 10192 10190 10189 10187 10186 10185 10184 10184 10183 10181 10179 10178 10177 10176 10176 10174 10174 10172 10171 10168 10165 10162 10159 10156 10154 10154 10156 10155 10154 10152 10149 10144 10141 10139 10139 10137 10135 10131 10126 10122 10119 10117 10114 10111 10108 10104 10102 10099 10097 10094 10092 10089 10087 10084 10082 10079 10077 10074 10071 10067 10065 10062 10058 10054 10049 10044 10039 10034 10031 10028 10026 10024 10022 10021 10019 10017 10017 10017 10016 10016 10016
10192 10190 10189 10189 10187 10186 10182 10181 10179 10179 10177 10177 10177 10176 10174 10172 10171 10170 10169 10169 10167 10166 10166 10164 10161 10158 10156 10153 10150 10147 10147 10149 10148 10146 10145 10142 10139 10135 10132 10132 10131 10129 10124 10119 10115 10112 10110 10107 10104 10100 10097 10094 10091 10089 10086 10084 10081 10078 10076 10073 10071 10068 10065 10062 10059 10056 10053 10049 10045 10040 10035 10030 10026 10022 10021 10018 10017 10015 10012 10011 10010 10009 10009 10009 10008 10008
10184 10182 10181 10180 10179 10178 10176 10174 10172 10171 10171 10171 10170 10168 10167 10166 10164 10162 10162 10162 10161 10159 10158 10156 10154 10151 10149 10147 10144 10141 10142 10142 10141 10140 10139 10137 10133 10129 10127 10126 10125 10122 10118 10112 10109 10106 10103 10100 10096 10092 10089 10087 10084 10082 10079 10076 10073 10070 10067 10064 10062 10059 10056 10054 10051 10047 10044 10041 10036 10031 10026 10022 10018 10015 10013 10011 10009 10007 10006 10004 10003 10002 10002 10001 10001 10001
10176 10174 10172 10172 10171 10171 10169 10167 10165 10164 10164 10164 10162 10161 10159 10159 10157 10156 10155 10154 10154 10152 10151 10149 10147 10145 10143 10140 10137 10136 10135 10135 10135 10134 10134 10131 10127 10123 10121 10120 10118 10116 10111 10107 10102 10099 10096 10093 10089 10085 10082 10079 10077 10074 10072 10069 10065 10062 10059 10056 10054 10051 10048 10045 10042 10039 10036 10032 10027 10023 10018 10014 10011 10008 10006 10004 10002 10000 9999 9997 9997 9996 9995 9994 9994 9994
10168 10166 10165 10164 10163 10162 10161 10159 10157 10156 10156 10156 10155 10154 10152 10152 10151 10150 10149 10148 10146 10145 10143 10142 10141 10138 10136 10134 10131 10129 10128 10128 10128 10128 10127 10125 10122 10119 10116 10114 10112 10109 10104 10101 10097 10094 10090 10086 10082 10078 10075 10072 10070 10067 10064 10061 10058 10054 10051 10048 10045 10042 10039 10037 10034 10031 10028 10024 10019 10015 10011 10007 10004 10002 9999 9997 9995 9993 9992 9991 9991 9989 9988 9987 9987 9987
10160 10158 10157 10156 10156 10155 10154 10152 10151 10149 10149 10148 10147 10147 10146 10145 10144 10144 10142 10141 10139 10138 10137 10136 10134 10131 10129 10127 10125 10122 10121 10121 10122 10121 10121 10119 10117 10114 10111 10108 10106 10102 10099 10095 10091 10087 10084 10079 10075 10071 10068 10066 10063 10061 10057 10054 10051 10047 10044 10041 10037 10034 10031 10029 10026 10023 10019 10016 10011 10007 10004 10001 9998 9996 9993 9991 9989 9987 9986 9985 9984 9983 9982 9981 9981 9981
10154 10151 10150 10149 10148 10147 10146 10145 10144 10142 10142 10141 10141 10140 10139 10139 10138 10137 10136 10134 10132 10131 10131 10129 10127 10125 10122 10121 10118 10116 10114 10114 10115 10115 10114 10113 10111 10108 10105 10102 10100 10097 10093 10089 10086 10082 10077 10073 10069 10065 10061 10058 10056 10054 10051 10047 10044 10041 10037 10033 10030 10026 10023 10021 10018 10016 10012 10007 10004 10001 9997 9995 9992 9990 9987 9985 9983 9981 9980 9979 9978 9977 9976 9976 9975 9975
10149 10146 10143 10142 10141 10140 10139 10138 10137 10136 10135 10134 10134 10133 10133 10132 10132 10131 10129 10127 10126 10125 10124 10123 10121 10118 10116 10114 10112 10109 10108 10107 10107 10107 10108 10108 10106 10102 10099 10096 10093 10091 10087 10084 10080 10076 10072 10067 10062 10059 10055 10052 10049 10047 10044 10041 10037 10034 10031 10026 10022 10019 10016 10014 10011 10008 10004 10000 9997 9994 9991 9989 9987 9984 9982 9979 9977 9976 9974 9973 9972 9971 9970 9970 9970 9970
10143 10140 10137 10134 10133 10132 10132 10131 10130 10129 10128 10127 10127 10127 10127 10126 10126 10124 10122 10121 10120 10119 10118 10117 10114 10112 10109 10107 10105 10103 10102 10101 10100 10100 10102 10102 10100 10096 10093 10090 10087 10084 10081 10077 10074 10071 10066 10061 10056 10052 10049 10046 10044 10041 10037 10034 10031 10027 10024 10020 10016 10012 10009 10007 10004 10001 9997 9993 9990 9987 9986 9984 9981 9979 9976 9974 9972 9970 9969 9967 9966 9966 9965 9965 9965 9965
10136 10134 10131 10128 10126 10126 10125 10124 10123 10122 10122 10121 10121 10120 10120 10120 10119 10117 10116 10114 10114 10112 10111 10110 10108 10106 10104 10102 10099 10097 10096 10093 10092 10094 10096 10096 10093 10090 10087 10084 10081 10078 10076 10072 10069 10065 10061 10055 10051 10047 10044 10041 10038 10035 10031 10028 10025 10022 10018 10014 10010 10006 10002 10000 9997 9994 9990 9987 9984 9982 9980 9978 9976 9973 9971 9969 9966 9965 9963 9962 9961 9961 9961 9961 9961 9961
10127 10126 10125 10122 10121 10119 10117 10117 10116 10116 10115 10114 10114 10114 10114 10114 10113 10111 10110 10109 10108 10107 10105 10104 10102 10100 10098 10096 10094 10092 10089 10087 10086 10087 10089 10089 10086 10084 10081 10078 10075 10072 10070 10066 10063 10059 10055 10050 10045 10041 10037 10035 10032 10029 10026 10022 10019 10016 10012 10008 10004 10000 9997 9994 9991 9987 9984 9981 9978 9976 9974 9973 9971 9968 9966 9963 9961 9960 9959 9957 9957 9957 9957 9957 9957 9957
10119 10118 10117 10116 10115 10113 10112 10111 10109 10109 10108 10107 10107 10107 10107 10107 10107 10106 10105 10104 10102 10101 10099 10097 10096 10094 10092 10091 10089 10086 10082 10080 10080 10081 10082 10082 10079 10077 10075 10072 10068 10065 10063 10061 10058 10054 10050 10046 10041 10036 10032 10029 10026 10023 10020 10017 10014 10010 10006 10002 9999 9995 9991 9988 9984 9981 9978 9975 9972 9971 9969 9967 9966 9963 9961 9958 9956 9955 9954 9954 9953 9953 9953 9953 9953 9954
10111 10110 10109 10109 10108 10107 10106 10104 10104 10102 10102 10101 10101 10101 10101 10101 10101 10100 10099 10097 10096 10094 10093 10091 10089 10087 10086 10085 10082 10079 10076 10074 10073 10074 10076 10075 10072 10070 10069 10066 10062 10058 10056 10054 10052 10050 10046 10042 10037 10032 10028 10024 10020 10017 10014 10011 10008 10004 10001 9997 9993 9990 9986 9982 9979 9976 9972 9970 9967 9966 9964 9962 9961 9958 9956 9954 9952 9951 9950 9950 9949 9949 9949 9950 9950 9951
10104 10103 10102 10101 10101 10100 10099 10098 10097 10097 10096 10094 10094 10093 10093 10092 10092 10092 10091 10091 10089 10088 10086 10085 10083 10081 10080 10078 10076 10074 10071 10069 10067 10069 10069 10069 10066 10064 10062 10059 10056 10052 10050 10047 10046 10044 10041 10037 10034 10029 10025 10021 10016 10012 10008 10006 10002 9999 9996 9992 9988 9984 9981 9978 9974 9971 9968 9965 9963 9961 9960 9958 9956 9954 9951 9949 9948 9947 9947 9946 9946 9946 9947 9947 9947 9949
10097 10096 10096 10095 10094 10093 10092 10092 10091 10091 10089 10089 10087 10086 10086 10086 10086 10085 10084 10084 10082 10082 10081 10079 10077 10076 10074 10072 10070 10067 10065 10063 10062 10062 10064 10063 10061 10059 10056 10054 10051 10047 10044 10042 10039 10037 10035 10032 10029 10026 10021 10017 10013 10009 10004 10001 9997 9994 9991 9987 9983 9979 9976 9973 9970 9967 9964 9961 9959 9957 9956 9954 9951 9949 9947 9946 9944 9944 9943 9943 9943 9944 9944 9945 9946 9947
10091 10090 10089 10089 10087 10087 10087 10086 10086 10085 10084 10082 10082 10081 10080 10080 10079 10079 10078 10077 10076 10076 10075 10074 10072 10071 10069 10067 10064 10062 10059 10057 10057 10057 10057 10057 10056 10054 10051 10049 10046 10042 10039 10036 10034 10031 10028 10026 10023 10021 10017 10012 10009 10004 10000 9996 9992 9989 9986 9982 9979 9975 9971 9968 9966 9962 9960 9957 9955 9953 9951 9949 9947 9945 9943 9942 9941 9941 9940 9941 9941 9941 9942 9942 9944 9944
10084 10083 10082 10082 10082 10081 10081 10081 10080 10079 10078 10077 10076 10076 10075 10074 10074 10072 10072 10071 10071 10070 10069 10068 10067 10065 10063 10061 10059 10056 10054 10052 10051 10051 10052 10051 10051 10049 10046 10043 10040 10037 10034 10031 10029 10026 10023 10020 10017 10014 10011 10007 10004 9999 9995 9991 9987 9984 9981 9977 9973 9970 9967 9964 9961 9959 9956 9954 9952 9950 9948 9946 9944 9941 9939 9939 9938 9937 9937 9938 9938 9939 9940 9941 9941 9942
10077 10077 10076 10076 10076 10076 10075 10074 10074 10073 10072 10071 10071 10070 10069 10069 10067 10067 10066 10066 10065 10064 10064 10062 10061 10059 10058 10056 10054 10051 10049 10047 10046 10046 10046 10046 10045 10043 10041 10037 10035 10032 10029 10026 10023 10021 10018 10015 10012 10009 10006 10002 9999 9994 9990 9986 9982 9979 9976 9972 9968 9964 9961 9959 9957 9955 9952 9951 9949 9946 9944 9942 9941 9938 9936 9936 9935 9935 9935 9936 9936 9937 9938 9939 9940 9941
10071 10071 10070 10070 10070 10069 10069 10068 10067 10067 10066 10066 10066 10065 10064 10063 10062 10061 10061 10060 10060 10059 10058 10057 10056 10054 10052 10050 10048 10046 10044 10042 10041 10040 10040 10040 10039 10037 10036 10032 10029 10027 10024 10021 10018 10015 10012 10010 10007 10004 10000 9997 9994 9989 9985 9981 9977 9974 9971 9967 9964 9960 9957 9954 9952 9951 9949 9947 9946 9944 9942 9939 9937 9935 9934 9933 9932 9932 9933 9934 9934 9936 9936 9937 9938 9939
10065 10064 10064 10064 10064 10063 10063 10062 10062 10061 10061 10061 10060 10059 10058 10057 10056 10056 10055 10054 10054 10053 10052 10051 10049 10048 10046 10044 10042 10040 10038 10037 10036 10035 10034 10034 10033 10032 10030 10027 10024 10021 10019 10016 10012 10010 10007 10004 10002 9999 9996 9992 9988 9984 9981 9977 9973 9970 9967 9964 9960 9956 9952 9949 9948 9947 9946 9944 9942 9941 9939 9936 9934 9932 9931 9931 9931 9931 9931 9932 9933 9934 9935 9936 9937 9937
10059 10059 10058 10057 10057 10057 10057 10056 10056 10056 10055 10055 10054 10053 10052 10051 10051 10050 10049 10049 10048 10047 10046 10046 10044 10042 10040 10038 10036 10034 10032 10031 10031 10030 10029 10028 10027 10026 10024 10022 10019 10016 10013 10010 10007 10004 10001 9999 9996 9993 9991 9987 9984 9980 9976 9972 9969 9966 9963 9960 9956 9952 9949 9946 9944 9944 9942 9941 9939 9937 9936 9934 9932 9930 9929 9928 9929 9929 9929 9931 9931 9932 9934 9934 9935 9936
10053 10052 10052 10052 10051 10051 10051 10051 10050 10050 10049 10049 10048 10047 10046 10046 10045 10044 10044 10044 10042 10042 10041 10039 10038 10036 10034 10032 10030 10028 10027 10026 10025 10024 10024 10022 10021 10020 10019 10016 10014 10011 10007 10004 10001 9999 9996 9992 9990 9987 9985 9982 9979 9976 9972 9968 9965 9962 9959 9956 9953 9949 9945 9942 9941 9940 9939 9938 9937 9935 9933 9931 9929 9927 9927 9926 9927 9927 9928 9929 9930 9931 9932 9933 9934 9935
10047 10046 10046 10046 10046 10045 10045 10045 10044 10044 10043 10042 10042 10041 10041 10040 10040 10039 10039 10037 10037 10036 10035 10034 10032 10031 10028 10026 10024 10022 10021 10021 10020 10019 10018 10017 10016 10014 10012 10011 10008 10006 10002 9999 9996 9993 9990 9987 9984 9981 9979 9977 9974 9971 9967 9964 9961 9957 9955 9952 9949 9946 9942 9939 9937 9936 9936 9935 9934 9932 9931 9929 9927 9926 9925 9925 9925 9926 9927 9928 9929 9931 9931 9932 9933 9934
10041 10041 10040 10040 10040 10039 10039 10039 10038 10038 10037 10037 10036 10036 10035 10035 10034 10034 10033 10032 10031 10030 10029 10028 10026 10025 10022 10020 10018 10016 10016 10015 10014 10013 10012 10011 10010 10009 10007 10005 10002 10000 9997 9994 9991 9987 9984 9982 9979 9976 9974 9972 9970 9967 9964 9960 9957 9954 9951 9948 9946 9942 9939 9936 9935 9934 9933 9932 9931 9930 9928 9926 9924 9923 9923 9923 9924 9925 9926 9927 9928 9929 9930 9931 9932 9934
10035 10035 10034 10034 10034 10034 10034 10033 10032 10032 10032 10031 10031 10030 10029 10029 10029 10029 10028 10027 10026 10024 10023 10022 10021 10019 10017 10014 10012 10011 10009 10009 10008 10007 10006 10006 10004 10003 10001 9999 9997 9995 9992 9989 9986 9982 9979 9976 9973 9971 9969 9967 9965 9962 9959 9956 9953 9949 9947 9944 9942 9939 9936 9934 9932 9931 9931 9929 9929 9927 9926 9924 9922 9922 9922 9922 9923 9924 9925 9926 9927 9928 9929 9931 9932 9933
10029 10029 10029 10029 10029 10029 10028 10027 10027 10027 10026 10026 10025 10024 10024 10024 10024 10023 10022 10021 10019 10018 10017 10016 10015 10013 10011 10009 10007 10005 10004 10003 10002 10001 10001 10000 9999 9997 9996 9994 9992 9989 9987 9984 9981 9977 9974 9971 9967 9965 9964 9962 9961 9958 9955 9952 9949 9946 9943 9940 9937 9935 9932 9931 9929 9929 9928 9927 9926 9925 9924 9922 9921 9920 9921 9921 9922 9923 9924 9926 9926 9927 9929 9930 9931 9932
10024 10024 10023 10023 10023 10023 10022 10022 10022 10022 10021 10021 10020 10019 10019 10019 10018 10017 10016 10015 10014 10012 10011 10011 10009 10007 10005 10003 10001 10000 9999 9997 9996 9996 9994 9994 9993 9992 9991 9989 9987 9984 9982 9979 9976 9972 9969 9966 9962 9961 9959 9957 9956 9954 9951 9947 9944 9942 9939 9937 9934 9931 9929 9928 9927 9926 9926 9925 9924 9922 9921 9920 9919 9919 9919 9920 9921 9922 9923 9924 9926 9926 9928 9929 9931 9932
10019 10018 10017 10017 10017 10017 10017 10017 10017 10017 10016 10016 10014 10014 10014 10013 10012 10012 10011 10009 10008 10007 10006 10005 10004 10002 10000 9998 9996 9995 9993 9992 9991 9989 9989 9987 9987 9986 9985 9984 9982 9979 9977 9974 9971 9967 9964 9961 9958 9956 9955 9954 9952 9949 9946 9943 9941 9938 9936 9933 9931 9928 9926 9925 9924 9924 9924 9922 9922 9921 9919 9918 9917 9917 9918 9919 9920 9921 9922 9923 9924 9926 9927 9929 9931 9932
10014 10013 10012 10012 10012 10012 10012 10012 10012 10012 10011 10010 10009 10009 10008 10008 10007 10006 10005 10004 10003 10002 10001 9999 9998 9997 9995 9993 9991 9990 9989 9987 9985 9984 9982 9982 9981 9981 9979 9978 9976 9974 9972 9969 9966 9962 9959 9956 9953 9951 9950 9950 9949 9946 9942 9939 9936 9934 9932 9929 9927 9925 9923 9922 9922 9922 9921 9921 9919 9919 9917 9917 9916 9916 9917 9918 9919 9921 9921 9922 9924 9925 9927 9928 9931 9932
10009 10008 10007 10007 10007 10007 10007 10007 10007 10006 10006 10004 10004 10003 10002 10002 10002 10001 9999 9999 9997 9997 9996 9994 9993 9991 9990 9988 9986 9985 9984 9982 9980 9979 9977 9976 9975 9974 9974 9972 9971 9969 9966 9964 9961 9957 9954 9951 9948 9946 9946 9946 9945 9943 9940 9936 9932 9930 9927 9926 9924 9922 9921 9919 9919 9920 9919 9919 9917 9917 9916 9915 9915 9915 9916 9917 9918 9919 9921 9922 9923 9924 9926 9928 9931 9932
10004 10003 10002 10002 10002 10001 10001 10001 10001 10001 10000 9999 9999 9998 9997 9997 9996 9996 9994 9994 9992 9991 9991 9989 9988 9986 9984 9983 9981 9980 9979 9977 9975 9974 9972 9971 9970 9969 9968 9966 9965 9963 9961 9958 9955 9952 9948 9945 9942 9941 9941 9941 9941 9939 9937 9933 9929 9926 9924 9922 9921 9919 9918 9917 9917 9917 9917 9917 9916 9915 9914 9914 9914 9914 9915 9916 9917 9919 9920 9921 9922 9924 9926 9928 9931 9933
9999 9999 9998 9997 9997 9997 9996 9996 9996 9995 9994 9994 9994 9993 9992 9992 9991 9990 9989 9989 9987 9986 9985 9984 9983 9981 9979 9978 9976 9975 9974 9972 9971 9969 9967 9966 9966 9964 9963 9961 9959 9957 9955 9952 9949 9946 9943 9940 9937 9935 9935 9936 9937 9936 9934 9931 9927 9923 9921 9919 9917 9916 9916 9915 9915 9916 9916 9915 9914 9913 9913 9912 9913 9914 9914 9916 9917 9918 9919 9921 9922 9924 9926 9929 9931 9934